This demonstration page uses our WeatherBlox Daily Observations layout. Learn more.

Left ArrowRight Arrow

40.92945, -100.16068

Hourly Observations for February 23, 2018

Temp ( °F °C ) Dew Point ( °F °C ) Humidity (%) Winds ( mph kmh ) Pressure ( in mb ) Visibility ( mi km ) Precip ( " mm )
12:15 am 00:15 Clear 15 -9.2 13 -10.6 90 90 W 7 11 30.33 1027 10 16 N/A
12:35 am 00:35 Clear 14 -9.8 12 -11.3 89 89 W 8 13 30.36 1028 10 16 N/A
12:55 am 00:55 Clear 16 -8.9 13 -10.4 89 89 W 8 13 30.33 1027 10 16 N/A
1:15 am 01:15 Clear 15 -9.6 12 -11.3 88 88 W 8 13 30.33 1027 10 16 N/A
1:35 am 01:35 Clear 15 -9.2 13 -10.7 89 89 W 5 7 30.36 1028 10 16 N/A
1:55 am 01:55 Clear 12 -11.1 9 -13 86 86 WNW 6 9 30.39 1029 10 16 N/A
2:15 am 02:15 Clear 12 -11.1 9 -12.8 87 87 NNW 5 7 30.39 1029 10 16 N/A
2:35 am 02:35 Clear 10 -12 7 -13.8 87 87 NNW 8 13 30.36 1028 10 16 N/A
2:55 am 02:55 Clear 11 -11.9 8 -13.6 87 87 NW 5 7 30.39 1029 10 16 N/A
3:15 am 03:15 Clear 10 -12.5 6 -14.3 87 87 NNW 3 6 30.39 1029 10 16 N/A
3:35 am 03:35 Clear 9 -12.6 6 -14.4 87 87 N N/A 30.42 1030 10 16 N/A
3:55 am 03:55 Clear 9 -12.6 6 -14.4 87 87 N N/A 30.42 1030 10 16 N/A
4:15 am 04:15 Clear 8 -13.6 4 -15.6 85 85 W 5 7 30.42 1030 10 16 N/A
4:35 am 04:35 Clear 8 -13.6 4 -15.5 86 86 W 5 7 30.42 1030 10 16 N/A
4:55 am 04:55 Clear 9 -13 5 -14.8 87 87 NW 5 7 30.42 1030 10 16 N/A
5:15 am 05:15 Clear 8 -13.1 5 -15.1 85 85 NW 5 7 30.42 1030 10 16 N/A
5:35 am 05:35 Clear 8 -13.3 4 -15.3 85 85 NW 6 9 30.42 1030 10 16 N/A
5:55 am 05:55 Clear 8 -13.2 5 -15.1 86 86 NW 7 11 30.42 1030 10 16 N/A
6:15 am 06:15 Clear 9 -12.8 6 -14.7 86 86 W 3 6 30.42 1030 10 16 N/A
6:35 am 06:35 Clear 8 -13.1 5 -15 86 86 WSW 5 7 30.45 1031 10 16 N/A
6:55 am 06:55 Clear 8 -13.3 4 -15.3 85 85 W 6 9 30.45 1031 10 16 N/A
7:15 am 07:15 Clear 9 -12.7 6 -14.6 86 86 W 6 9 30.45 1031 10 16 N/A
7:35 am 07:35 Sunny 8 -13.2 5 -15.2 85 85 W 3 6 30.45 1031 10 16 N/A
7:55 am 07:55 Sunny 9 -12.9 5 -14.8 86 86 WNW 6 9 30.45 1031 7 11 N/A
8:15 am 08:15 Sunny 10 -12.1 7 -13.9 87 87 WNW 7 11 30.45 1031 10 16 N/A
8:35 am 08:35 Sunny 12 -10.9 9 -12.7 87 87 NW 10 17 30.42 1030 10 16 N/A
8:55 am 08:55 Sunny 14 -10 11 -11.6 88 88 NW 9 15 30.42 1030 10 16 N/A
9:15 am 09:15 Sunny 15 -9.2 12 -10.9 88 88 NW 8 13 30.42 1030 10 16 N/A
9:35 am 09:35 Sunny 17 -8.4 14 -10 88 88 NNW 7 11 30.39 1029 10 16 N/A
9:55 am 09:55 Sunny 18 -7.7 15 -9.5 87 87 N 7 11 30.42 1030 10 16 N/A
10:15 am 10:15 Sunny 19 -7.3 16 -9.1 87 87 NNE 5 7 30.42 1030 10 16 N/A
10:35 am 10:35 Sunny 19 -7.3 15 -9.5 84 84 N 3 6 30.45 1031 10 16 N/A
10:55 am 10:55 Sunny 19 -7.1 15 -9.5 83 83 NE 3 6 30.45 1031 10 16 N/A
11:15 am 11:15 Sunny 19 -7 15 -9.3 84 84 NNE 6 9 30.45 1031 10 16 N/A
11:35 am 11:35 Partly Cloudy 20 -6.8 16 -8.9 85 85 NNE 5 7 30.45 1031 10 16 N/A
11:55 am 11:55 Cloudy 21 -6.2 17 -8.3 85 85 NNE 6 9 30.45 1031 10 16 N/A
12:15 pm 12:15 Cloudy 21 -6.2 17 -8.1 87 87 E 5 7 30.45 1031 10 16 N/A
12:35 pm 12:35 Cloudy 21 -5.9 18 -7.8 87 87 NNE 5 7 30.45 1031 10 16 N/A
12:55 pm 12:55 Cloudy 22 -5.6 18 -7.6 86 86 N N/A 30.39 1029 10 16 N/A
1:15 pm 13:15 Cloudy 22 -5.3 19 -7.4 85 85 ENE 3 6 30.39 1029 10 16 N/A
1:35 pm 13:35 Cloudy 23 -4.9 19 -7 85 85 N N/A 30.39 1029 10 16 N/A
1:55 pm 13:55 Cloudy 24 -4.3 20 -6.5 85 85 N N/A 30.39 1029 10 16 N/A
2:15 pm 14:15 Cloudy 25 -3.9 20 -6.4 83 83 N N/A 30.36 1028 10 16 N/A
2:35 pm 14:35 Cloudy 26 -3.5 21 -6 83 83 NE 6 9 30.33 1027 10 16 N/A
2:55 pm 14:55 Cloudy 26 -3.2 22 -5.8 82 82 NNE 5 7 30.33 1027 10 16 N/A
3:15 pm 15:15 Cloudy 27 -3 22 -5.6 82 82 NE 3 6 30.33 1027 10 16 N/A
3:35 pm 15:35 Cloudy 27 -2.6 22 -5.6 80 80 NE 3 6 30.30 1026 10 16 N/A
3:55 pm 15:55 Cloudy 28 -2.5 22 -5.4 81 81 NE 6 9 30.30 1026 10 16 N/A
4:15 pm 16:15 Cloudy 28 -2.5 22 -5.3 81 81 NE 7 11 30.30 1026 10 16 N/A
4:35 pm 16:35 Cloudy 27 -2.6 22 -5.3 82 82 ENE 9 15 30.30 1026 10 16 N/A
4:55 pm 16:55 Cloudy 27 -2.7 22 -5.4 82 82 ENE 7 11 30.30 1026 10 16 N/A
5:15 pm 17:15 Cloudy 27 -2.9 22 -5.5 82 82 NE 8 13 30.30 1026 10 16 N/A
5:35 pm 17:35 Cloudy 26 -3.2 22 -5.6 84 84 ENE 9 15 30.30 1026 10 16 N/A
5:55 pm 17:55 Cloudy 26 -3.2 22 -5.5 84 84 E 6 9 30.30 1026 10 16 N/A
6:15 pm 18:15 Cloudy 26 -3.5 22 -5.7 85 85 E 5 7 30.30 1026 10 16 N/A
6:35 pm 18:35 Cloudy 26 -3.2 22 -5.3 86 86 E 9 15 30.30 1026 10 16 N/A
6:55 pm 18:55 Cloudy 26 -3.3 22 -5.5 85 85 E 9 15 30.30 1026 10 16 N/A
7:15 pm 19:15 Cloudy 26 -3.5 22 -5.5 86 86 E 12 19 30.30 1026 10 16 N/A
7:35 pm 19:35 Cloudy 25 -3.8 22 -5.7 87 87 ENE 8 13 30.27 1025 10 16 N/A
7:55 pm 19:55 Cloudy 25 -4 21 -5.9 87 87 E 7 11 30.33 1027 10 16 N/A
8:15 pm 20:15 Cloudy 25 -4 22 -5.8 87 87 ENE 10 17 30.27 1025 10 16 N/A
8:35 pm 20:35 Cloudy 25 -4.1 22 -5.7 89 89 E 10 17 30.30 1026 10 16 N/A
8:55 pm 20:55 Cloudy 24 -4.6 21 -6 90 90 E 10 17 30.30 1026 10 16 N/A
9:15 pm 21:15 Cloudy 24 -4.5 21 -6 89 89 E 9 15 30.30 1026 10 16 N/A
9:35 pm 21:35 Cloudy 23 -4.9 21 -6.2 91 91 E 9 15 30.30 1026 10 16 N/A
9:55 pm 21:55 Cloudy 23 -4.8 21 -6 91 91 ENE 10 17 30.30 1026 10 16 N/A
10:15 pm 22:15 Cloudy 23 -5 21 -6.2 91 91 E 12 19 30.27 1025 7 11 N/A
10:35 pm 22:35 Cloudy 22 -5.5 20 -6.5 93 93 E 12 19 30.27 1025 7 11 N/A
10:55 pm 22:55 Cloudy 22 -5.6 20 -6.6 93 93 E 12 19 30.27 1025 7 11 N/A
11:15 pm 23:15 Cloudy 22 -5.5 20 -6.6 92 92 E 10 17 30.27 1025 10 16 N/A
11:35 pm 23:35 Cloudy 22 -5.3 20 -6.5 91 91 E 9 15 30.27 1025 10 16 N/A
11:55 pm 23:55 Cloudy 23 -5 21 -6.2 91 91 ESE 10 17 30.27 1025 10 16 N/A

Powered by AerisWeather